CAPE
186 320 429 526 548 544 528 511 502 493 413 545 591 612 648 780 860 895 934 961 960 974 1063 1204 1283 1339 1371 1346 1291 1255 1211 1182 1166 1161 1141 1104 1056 1004 927 865 845 859 1133 1464 1712 1848 1897 1945 2058 2105 2086 2094 2167 2317 2492 2677 2772 2841 2891 2914 2985 3018 2918
209 360 444 537 609 613 584 553 557 564 534 432 344 572 605 733 832 870 928 954 976 991 1034 1168 1270 1328 1373 1359 1321 1300 1263 1226 1186 1158 1131 1100 1044 988 916 880 843 806 901 1250 1494 1718 1817 1850 1963 2070 2104 2100 2173 2256 2400 2590 2713 2786 2847 2900 2966 3014 2987
203 346 466 556 646 685 674 646 633 626 597 479 361 565 605 680 794 855 901 958 995 1012 1034 1130 1249 1317 1355 1369 1334 1302 1281 1236 1185 1132 1108 1067 1020 1003 964 928 886 853 810 1050 1333 1550 1715 1784 1828 1980 2060 2098 2162 2264 2338 2462 2627 2725 2779 2851 2910 2973 2954
145 268 459 566 661 740 755 740 722 679 652 585 566 410 563 654 705 815 875 927 984 1026 1054 1102 1206 1286 1339 1355 1344 1308 1276 1262 1206 1159 1121 1072 1016 1000 1040 974 960 932 902 932 1210 1429 1654 1756 1812 1881 2184 2049 2114 2237 2347 2400 2498 2611 2683 2713 2754 2818 2860
157 226 398 554 674 750 789 826 806 765 709 644 613 614 642 661 691 769 831 894 942 1003 1034 1084 1169 1263 1308 1347 1349 1324 1292 1265 1250 1199 1147 1095 1009 891 1126 1095 996 963 1069 1024 1148 1432 1610 1748 1800 1847 1945 2016 2060 2173 2307 2400 2443 2513 2580 2589 2606 2640 2745
163 324 410 518 644 746 830 868 879 845 781 704 660 660 677 686 699 708 794 865 904 941 1002 1042 1116 1202 1263 1301 1322 1311 1294 1286 1275 1254 1195 1111 1005 892 996 1256 1156 979 1089 1238 1242 1444 1609 1743 1774 1819 1884 1990 2048 2108 2209 2321 2419 2482 2526 2558 2546 2557 2614
206 328 420 495 598 718 824 873 888 876 825 744 680 685 722 742 738 726 720 851 906 918 978 1030 1060 1116 1178 1213 1251 1259 1262 1265 1262 1261 1212 1136 1015 913 900 1076 1343 1290 1148 1276 1450 1523 1682 1774 1819 1841 1855 1953 2028 2058 2107 2174 2304 2428 2496 2531 2530 2522 2538
212 339 411 495 584 677 759 828 891 893 854 792 750 722 739 764 768 775 759 827 924 932 968 1025 1059 1093 1137 1149 1171 1206 1199 1214 1230 1237 1215 1141 1044 952 985 976 1161 1440 1440 1327 1479 1698 1784 1847 1888 1890 1879 1891 1984 2030 2058 2108 2176 2302 2427 2475 2500 2495 2483
286 367 437 502 600 674 717 792 869 927 928 915 876 815 800 918 934 938 898 854 948 982 983 1025 1087 1109 1137 1139 1143 1156 1158 1151 1150 1156 1158 1121 1063 1004 1076 1090 1105 1285 1541 1569 1478 1641 1875 1958 2007 2004 1961 1902 1914 2010 2076 2123 2153 2215 2310 2380 2420 2447 2445
198 385 460 527 605 691 749 796 834 885 933 978 991 936 871 1025 1045 1065 1064 1027 1046 1068 1048 1038 1098 1165 1200 1205 1183 1162 1158 1157 1140 1135 1140 1129 1111 1129 1166 1194 1217 1294 1499 1647 1640 1590 1730 1975 2099 2150 2118 2044 1965 1974 2076 2160 2212 2243 2292 2345 2370 2390 2419
279 414 476 538 606 710 762 790 845 900 936 1002 1010 965 1025 1105 1154 1200 1235 1229 1229 1225 1200 1158 1148 1199 1251 1280 1261 1245 1236 1219 1201 1183 1157 1150 1160 1192 1237 1292 1315 1341 1483 1657 1761 1727 1665 1771 2012 2182 2255 2232 2143 2070 2060 2146 2252 2314 2350 2381 2403 2406 2408
216 430 504 534 611 702 775 827 907 947 973 985 988 1027 1142 1202 1272 1326 1393 1426 1431 1447 1420 1373 1334 1305 1324 1354 1357 1344 1306 1293 1272 1246 1226 1200 1200 1217 1253 1318 1374 1395 1459 1600 1796 1882 1819 1756 1839 2012 2168 2268 2291 2232 2172 2163 2228 2327 2388 2436 2465 2473 2457
212 459 522 546 610 726 821 868 934 1001 1020 1018 1006 1014 1189 1304 1378 1472 1550 1610 1652 1681 1657 1623 1562 1505 1460 1456 1457 1450 1414 1381 1358 1332 1314 1295 1282 1260 1255 1286 1349 1400 1432 1502 1676 1875 1970 1933 1866 1924 2011 2089 2191 2263 2283 2264 2254 2280 2360 2432 2480 2515 2528
644 446 518 555 618 756 872 927 978 1020 1060 1054 1027 1016 1134 1333 1453 1575 1692 1786 1847 1884 1896 1867 1793 1722 1662 1608 1583 1581 1556 1515 1465 1470 1472 1444 1368 1357 1332 1313 1322 1365 1399 1420 1491 1643 1920 2076 2056 2008 2012 2056 2066 2110 2160 2222 2262 2298 2319 2370 2442 2498 2529
402 447 520 567 661 786 916 979 1004 1053 1102 1111 1082 1053 1102 1272 1449 1592 1768 1912 2023 2081 2102 2092 2025 1952 1879 1811 1766 1721 1693 1664 1632 1630 1632 1625 1569 1463 1429 1398 1381 1379 1399 1415 1424 1437 1555 1853 2115 2165 2142 2112 2112 2123 2133 2136 2154 2220 2311 2378 2428 2463 2507
440 468 524 614 712 818 936 1003 1043 1086 1152 1184 1160 1138 1144 1225 1385 1556 1733 1938 2110 2216 2257 2265 2232 2170 2106 2038 1963 1902 1854 1821 1809 1799 1790 1784 1775 1679 1504 1474 1468 1464 1467 1464 1460 1440 1426 1447 1684 2023 2187 2203 2186 2188 2212 2232 2206 2190 2242 2336 2419 2484 2518
444 483 555 645 728 829 941 1015 1071 1116 1168 1217 1232 1238 1237 1262 1356 1479 1633 1838 2089 2294 2422 2450 2439 2365 2316 2248 2185 2122 2071 2032 2008 1990 1976 1956 1913 1879 1737 1551 1521 1511 1522 1522 1534 1519 1480 1438 1427 1548 1867 2140 2212 2201 2179 2230 2311 2359 2347 2348 2410 2474 2556
435 497 568 649 741 818 919 1016 1051 1115 1204 1245 1279 1298 1313 1332 1390 1466 1579 1746 1987 2251 2494 2622 2626 2574 2508 2458 2411 2361 2311 2256 2224 2192 2178 2138 2102 2074 1994 1829 1624 1551 1529 1541 1558 1567 1553 1520 1477 1442 1486 1693 2004 2189 2213 2169 2185 2317 2444 2482 2488 2500 2526
438 508 572 648 732 807 901 999 1053 1111 1220 1298 1323 1316 1321 1390 1507 1566 1608 1714 1916 2155 2445 2680 2784 2771 2732 2675 2631 2582 2529 2490 2445 2421 2370 2332 2302 2311 2266 2153 1980 1760 1597 1561 1566 1605 1633 1611 1573 1542 1495 1478 1563 1786 2062 2200 2205 2206 2244 2385 2506 2557 2552
420 510 555 638 732 815 904 974 1020 1064 1179 1336 1419 1421 1384 1495 1662 1703 1707 1780 1938 2155 2382 2634 2806 2894 2899 2874 2829 2778 2730 2685 2650 2597 2543 2507 2522 2548 2518 2427 2301 2124 1912 1671 1621 1645 1682 1712 1716 1674 1629 1574 1529 1543 1645 1857 2053 2188 2234 2248 2285 2396 2497
445 547 593 628 708 809 898 956 990 1036 1137 1270 1419 1474 1448 1506 1834 1912 1944 2025 2131 2243 2420 2611 2783 2897 2975 2996 2976 2947 2898 2854 2806 2758 2729 2728 2749 2739 2688 2609 2518 2410 2304 2147 1940 1703 1727 1750 1796 1810 1791 1737 1678 1622 1611 1661 1767 1941 2106 2204 2242 2247 2299
1803 1195 938 659 661 758 849 923 968 1034 1159 1227 1315 1414 1470 1710 2056 2205 2246 2260 2314 2362 2479 2664 2815 2915 2993 3049 3078 3063 3036 2994 2958 2942 2939 2944 2925 2888 2841 2760 2839 2838 2820 2689 2532 2340 2095 1823 1784 1822 1859 1882 1878 1819 1756 1734 1760 1862 1978 2104 2214 2257 2255
2938 2748 2556 2358 2200 2179 1980 1776 1702 1998 2412 2006 1848 1847 1807 2206 2499 2542 2525 2520 2521 2550 2570 2725 2909 3027 3107 3147 3169 3172 3161 3139 3128 3116 3102 3085 3047 3013 2970 3016 3151 3232 3250 3202 3063 2826 2599 2314 2046 1853 1834 1890 1941 1942 1900 1863 1850 1861 1948 2072 2199 2302 2365
3030 3059 3060 3025 3031 3067 3081 3141 3237 3297 2860 2876 2735 2560 2624 2800 2865 2908 2892 2831 2768 2744 2739 2782 2951 3121 3250 3334 3321 3337 3308 3278 3245 3225 3213 3185 3171 3120 3149 3250 3353 3448 3478 3459 3319 3156 2958 2725 2463 2153 1884 1846 1894 1938 1978 1966 1953 1944 1938 1954 2073 2206 2317
3170 3225 3283 3326 3430 3492 3531 3587 3638 3674 3730 3768 3754 3610 3070 3077 3150 3119 3136 3113 3057 2999 2960 2926 2799 2938 3306 3465 3510 3525 3506 3467 3436 3394 3370 3352 3258 3286 3360 3441 3524 3579 3614 3617 3553 3448 3298 3102 2877 2608 2287 1970 1834 1881 1944 1965 1976 1986 1994 1993 2000 2064 2181
3039 3123 3265 3420 3484 3575 3675 3693 3718 3753 3794 3868 3974 3855 3418 3409 3458 3451 3390 3383 3325 3282 3244 3184 3234 3256 3314 3344 3634 3714 3692 3663 3624 3589 3534 3516 3432 3460 3541 3603 3664 3702 3726 3717 3675 3642 3550 3399 3230 3045 2838 2615 2368 2065 1958 2042 2104 2135 2155 2162 2142 2127 2136
2968 2953 2987 3093 3252 3439 3584 3610 3650 3674 3694 3746 3799 3884 3880 3663 3723 3739 3720 3686 3624 3584 3580 3538 3551 3592 3609 3601 3585 3733 3830 3832 3810 3769 3724 3686 3675 3675 3706 3743 3778 3805 3816 3799 3770 3732 3688 3628 3500 3325 3153 2974 2814 2633 2488 2250 2196 2374 2434 2472 2471 2447 2436
2931 2964 3005 2938 3064 3255 3489 3580 3638 3707 3764 3712 3692 3894 3792 3714 3740 3923 3833 3873 3918 3928 3889 3894 3892 3858 3846 3819 3782 3760 3754 3936 3958 3929 3904 3875 3854 3862 3864 3864 3880 3892 3889 3866 3840 3805 3750 3718 3618 3512 3388 3228 3089 2988 2885 2752 2577 2386 2569 2661 2704 2715 2737
2512 2686 2731 2794 2699 2575 2522 2691 2827 3008 3375 3624 3608 3608 3663 3710 3800 3778 3703 3680 3792 3864 3975 4082 3997 3878 3959 3984 3981 3986 3978 3955 3940 3965 4031 4031 4007 3993 4001 3992 3998 3980 3960 3948 3924 3888 3851 3781 3718 3635 3550 3442 3328 3216 3135 3053 2956 2806 2703 2671 2630 2871 2914
1716 2038 2368 2557 2614 2598 2487 2429 2518 2700 2979 3229 3426 3581 3604 3577 3563 3674 3677 3638 3876 4038 4072 4318 4512 4310 3734 3709 3773 3890 4003 4040 4062 4049 4037 4076 4105 4098 4102 4101 4086 4064 4044 4016 3987 3965 3924 3864 3781 3715 3654 3593 3517 3442 3359 3297 3230 3152 3107 3029 2929 2792 2884
1651 1800 1992 2161 2306 2387 2376 2332 2236 2154 2275 2648 2998 3371 3615 3609 3632 3659 3654 3787 3926 4123 4151 4463 4798 4665 4317 3812 3648 3639 3727 3826 3914 3963 4031 4106 4140 4171 4176 4180 4156 4142 4122 4077 4049 4023 3980 3928 3856 3802 3742 3675 3638 3600 3551 3495 3468 3476 3444 3401 3302 3168 3032
1586 1636 1731 1897 1996 2018 2050 2088 2045 1968 1876 1891 2219 2656 3044 3427 3532 3647 3658 3793 4076 4187 4336 4507 4968 4688 4605 4305 3875 3638 3592 3804 3918 3988 4034 4096 4151 4202 4213 4217 4193 4191 4188 4145 4106 4053 4014 3983 3926 3870 3836 3809 3793 3765 3752 3762 3782 3792 3772 3701 3600 3505 3479
1542 1598 1688 1783 1870 1987 1907 1880 1819 1717 1620 1572 1727 1826 1997 2675 3070 3433 3628 3740 4010 4259 4375 4564 5006 4958 4611 4408 4350 4063 3777 3903 4019 4118 4168 4196 4236 4257 4272 4257 4261 4248 4222 4189 4154 4126 4075 4045 4011 3983 3963 3959 3954 3978 3996 4025 4079 4100 4050 3985 3934 3895 3842
1257 1483 1666 1759 1854 1902 1880 1847 1742 1732 1677 1621 1627 1694 1778 1810 1848 2496 3243 3600 3814 4106 4330 4626 4831 5000 4929 4611 4289 4111 3977 4038 4693 4572 4452 4504 4490 4485 4404 4362 4342 4315 4310 4268 4243 4206 4188 4163 4142 4137 4132 4147 4203 4273 4327 4362 4352 4307 4245 4229 4220 4183 4134
970 1222 1396 1571 1731 1799 1797 1783 1792 1755 1708 1582 1579 1550 1602 1593 1631 1643 1851 2614 3292 3685 3990 4545 4675 4901 4979 4872 4510 4276 4121 4186 4837 4713 4652 4681 4722 4726 4693 4693 4628 4521 4502 4448 4434 4394 4379 4346 4327 4372 4439 4458 4508 4581 4629 4607 4543 4507 4434 4412 4370 4321 4244
283 768 1076 1191 1425 1730 1816 1837 1842 1842 1733 1588 1536 1546 1569 1611 1626 1762 1915 2252 2633 3121 3604 4307 4605 4697 4888 4907 4824 4503 4435 4470 4905 4750 4683 4686 4758 4806 4869 4888 4906 4890 4845 4822 4790 4792 4825 4826 4848 4813 4739 4766 4822 4812 4803 4769 4668 4514 4465 4393 4348 4284 4191
0 141 981 1114 1250 1526 1755 1886 1919 1836 1752 1622 1561 1529 1479 1573 1779 1962 2180 2308 2467 2918 3435 4007 4508 4511 4758 4848 4866 4756 4649 4628 4789 4751 4733 4676 4660 4732 4865 4901 5049 5144 5176 5150 5200 5217 5193 5170 5152 5090 5041 5011 4941 4829 4806 4807 4574 4443 4388 4302 4218 4136 4042
3 16 493 1107 1228 1309 1390 1686 1928 1858 1830 1708 1586 1523 1446 1390 1584 1720 2030 2320 2311 2653 3063 3677 4288 4483 4446 4713 4820 4854 4789 4687 4707 4717 4747 4699 4731 4789 4881 4983 5016 5067 5260 5401 5430 5408 5422 5382 5335 5225 5168 5158 5097 4989 4876 4799 4764 4604 4402 4335 4177 4038 3898
Wind_Speed
7 4 3 2 3 2 4 6 9 10 10 11 12 11 9 6 6 8 8 7 4 3 3 4 4 5 4 5 6 6 4 6 8 8 8 7 7 7 7 7 6 6 6 4 4 3 3 0 3 4 4 5 6 7 9 9 10 11 13 14 15 16 17
2 3 3 4 3 3 4 3 7 8 9 10 10 11 9 7 6 6 6 7 5 4 3 4 4 5 5 7 8 7 6 7 8 10 10 10 10 9 7 6 5 5 5 4 3 3 3 1 2 2 3 3 5 6 7 8 8 9 10 12 13 14 15
4 4 4 4 3 3 3 1 4 9 11 10 9 10 11 9 6 5 6 6 5 4 4 3 4 5 8 9 9 8 8 9 10 9 8 7 6 6 7 6 6 5 4 4 4 4 3 2 2 2 3 3 4 5 6 7 8 8 9 10 11 12 13
4 4 4 4 2 1 1 2 5 6 9 11 11 11 11 11 7 5 4 5 5 4 2 3 5 6 9 8 8 8 8 9 9 9 8 8 8 9 8 7 7 7 6 4 3 4 3 3 3 3 4 4 4 5 6 7 7 8 9 10 9 10 11
3 4 6 8 6 9 9 5 2 4 10 11 10 10 10 10 9 6 4 4 4 3 1 4 8 9 10 9 10 11 10 10 11 11 11 11 11 11 8 6 6 5 4 5 6 5 5 4 4 4 4 5 5 5 6 7 7 8 8 9 9 9 10
4 1 5 7 8 9 7 4 2 6 9 11 11 9 7 8 7 6 4 4 3 3 5 7 7 9 9 9 10 11 12 12 12 11 11 11 11 9 8 7 6 6 7 4 6 5 5 4 4 4 5 5 5 6 6 7 7 8 8 8 8 9 9
10 7 6 7 9 10 10 6 1 3 5 7 8 8 5 4 5 4 5 3 3 4 4 4 5 7 8 9 9 10 10 11 11 10 11 12 10 9 9 9 8 8 7 10 7 6 5 4 4 5 5 5 6 6 7 7 8 8 7 8 8 8 9
14 12 9 8 8 12 14 9 4 2 4 7 10 9 5 4 4 4 3 3 4 4 3 2 4 5 6 9 9 8 9 10 12 12 12 10 9 9 9 9 8 9 10 8 7 6 4 4 4 4 6 6 6 7 7 7 8 8 8 7 7 7 8
14 15 14 9 8 12 14 9 6 5 7 9 11 9 6 5 4 3 3 5 5 3 2 3 4 5 7 8 8 8 10 12 12 13 11 9 9 9 9 9 9 10 8 7 8 7 5 4 4 5 6 6 7 7 7 7 7 8 9 8 8 7 7
14 15 14 10 8 13 14 11 11 12 10 9 9 8 5 4 5 5 6 5 5 2 3 5 6 8 9 9 9 9 10 11 12 11 9 8 9 9 9 9 9 9 8 7 7 5 5 5 4 5 6 6 6 7 7 7 7 8 8 8 8 7 7
14 14 17 14 12 16 19 17 16 13 9 8 8 5 4 5 5 5 5 6 5 5 6 6 8 8 9 10 9 11 11 11 12 10 8 8 10 9 8 8 9 9 7 6 5 4 5 4 5 5 5 6 6 7 7 8 8 8 7 7 7 6 6
15 16 18 18 16 21 22 18 17 13 9 9 7 4 4 4 5 5 6 5 6 8 8 7 8 7 8 9 9 10 10 10 11 9 8 8 9 8 8 8 9 8 8 6 4 4 4 3 4 5 5 5 5 6 7 7 8 8 7 7 6 5 4
15 18 21 22 23 24 25 23 18 12 8 7 5 5 6 5 4 4 6 7 8 9 9 8 8 7 7 8 7 8 7 8 9 10 10 10 10 10 10 9 8 8 7 7 5 4 4 3 4 5 5 4 4 5 7 7 7 7 7 6 5 4 3
13 17 24 27 29 29 26 22 18 12 8 7 6 7 9 8 5 4 5 6 8 9 10 10 8 7 7 8 7 7 7 8 9 11 11 13 13 11 10 10 9 9 8 8 6 5 4 4 4 4 4 3 4 5 6 6 6 6 6 5 5 4 3
11 15 23 26 27 26 24 21 18 12 9 8 8 9 9 9 8 6 6 8 9 10 9 10 9 8 8 8 7 8 10 12 13 14 14 13 12 11 10 10 11 10 10 9 7 7 6 5 5 4 3 3 4 4 5 5 5 5 5 6 5 4 3
8 13 18 20 21 22 22 17 14 11 10 10 9 10 11 10 8 5 3 3 4 6 9 11 9 9 8 7 8 10 12 13 14 14 13 12 10 10 11 12 12 12 10 9 8 8 7 6 4 3 3 3 4 4 4 4 4 6 11 10 5 4 1
8 11 14 15 18 21 20 16 14 15 14 12 10 9 9 9 7 6 5 4 3 4 8 10 11 10 9 8 11 13 14 14 14 14 12 11 11 12 11 11 12 11 10 9 9 8 7 6 4 3 3 3 3 4 4 3 3 10 10 11 11 5 2
5 9 12 15 18 20 19 18 20 20 16 14 11 9 11 11 10 7 7 7 6 4 6 7 9 9 10 10 12 13 12 13 13 13 12 12 11 11 12 12 12 11 10 10 9 9 8 6 4 4 5 5 3 2 3 3 6 9 9 9 9 8 4
3 6 10 13 16 18 19 20 20 17 13 14 12 10 9 9 8 6 6 6 6 6 5 5 5 7 8 10 11 11 11 12 11 10 10 10 11 12 13 12 11 10 10 9 10 11 8 5 5 5 6 5 2 1 1 1 5 8 8 7 8 9 7
6 6 10 12 13 15 17 20 21 17 13 12 12 10 11 11 8 7 7 8 9 7 8 7 6 6 6 6 6 5 5 5 5 5 5 7 8 9 9 8 7 9 11 12 12 9 7 7 6 6 6 5 4 3 3 1 3 5 5 5 6 7 6
16 14 16 18 19 20 22 20 19 19 18 19 19 21 22 21 19 22 21 16 12 11 11 9 8 8 7 5 4 3 3 2 2 2 3 4 5 5 5 5 6 8 10 11 10 9 9 9 8 8 8 7 7 6 4 3 2 2 3 4 5 5 6
20 20 23 26 26 25 25 24 20 17 18 25 27 26 24 22 23 22 19 18 15 15 13 12 10 9 9 8 5 4 3 2 2 2 3 3 4 4 4 5 6 7 9 9 8 10 11 11 11 9 8 8 8 7 4 4 1 3 4 4 4 6 7
27 26 28 31 30 30 30 29 29 29 32 33 31 29 27 28 27 25 25 22 20 18 16 14 12 10 10 9 7 6 5 5 4 3 3 4 5 5 5 5 6 6 9 8 8 9 10 11 13 12 10 9 9 6 5 6 4 4 5 6 7 10 7
33 32 32 34 35 35 36 36 36 36 36 36 35 31 29 29 29 28 26 23 22 20 17 14 12 12 12 10 10 8 8 7 6 6 6 7 6 7 6 6 7 7 9 9 9 9 10 12 14 14 12 10 8 8 7 8 7 6 6 8 10 10 8
38 36 35 35 35 36 39 40 40 40 42 43 43 40 33 29 29 28 24 23 22 21 18 14 13 14 14 13 12 10 9 9 9 8 9 9 9 9 9 10 10 10 11 10 10 9 12 13 13 14 14 11 10 8 8 10 9 7 7 9 12 11 11
40 39 37 35 36 34 34 37 44 47 47 47 45 42 40 35 32 27 25 24 24 22 19 17 17 16 16 14 13 13 12 12 11 11 11 11 11 12 11 11 12 12 13 13 11 11 13 13 13 13 14 15 14 13 12 12 12 12 9 11 13 14 13
41 39 38 36 34 32 33 35 39 42 44 42 42 42 41 38 36 34 33 33 31 26 26 29 29 27 24 21 19 17 15 14 13 12 13 14 14 14 14 15 15 15 15 14 13 12 13 13 14 14 15 17 17 16 16 15 13 12 13 12 15 16 15
45 43 40 37 36 34 31 31 33 37 41 42 43 43 41 41 42 40 40 40 39 38 37 35 32 31 30 26 23 21 19 17 17 16 16 17 18 18 17 17 17 16 16 14 14 13 11 13 15 16 17 19 20 20 19 17 13 14 14 14 15 17 17
46 43 41 40 39 35 34 34 34 35 36 38 40 41 41 43 43 42 42 43 41 39 39 37 35 32 29 27 25 24 22 22 20 21 22 21 21 21 20 21 21 20 19 17 15 14 13 12 13 14 17 20 22 23 22 21 18 12 17 17 16 15 17
45 42 41 40 38 35 35 35 34 34 33 34 36 38 39 41 42 42 43 43 39 39 38 38 36 34 32 30 27 26 25 24 24 24 25 24 24 24 23 24 24 24 24 22 19 17 14 14 14 13 14 17 21 24 24 22 21 19 16 19 16 15 16
43 42 41 40 38 36 35 35 34 33 34 33 34 35 37 39 42 43 45 43 42 42 41 40 37 35 33 32 31 29 28 28 28 27 27 27 28 27 26 27 28 28 28 28 25 21 18 17 16 15 14 15 19 22 24 24 23 26 24 19 19 16 16
46 44 44 43 40 37 35 35 35 35 35 34 32 33 35 37 40 43 41 41 43 43 43 43 41 38 36 35 35 33 34 33 32 31 31 31 31 29 30 30 30 30 31 31 29 26 23 21 20 18 18 17 18 21 23 28 31 30 29 28 27 25 22
46 44 44 44 41 38 38 37 37 36 36 35 32 32 33 35 36 37 38 41 43 44 45 45 44 42 41 39 39 39 39 36 36 36 37 37 37 36 35 35 34 33 33 33 33 32 29 27 25 23 22 20 20 20 26 29 29 30 30 30 31 32 32
49 48 46 44 43 40 38 39 38 38 37 36 34 32 32 32 32 33 34 36 39 41 43 44 44 43 43 43 42 41 40 39 38 40 41 44 44 43 42 41 39 37 36 36 36 36 34 32 29 27 25 23 23 26 29 27 28 28 29 30 32 33 34
49 48 47 48 46 44 40 39 39 39 40 39 37 37 36 34 32 31 32 31 33 35 38 40 40 42 42 42 42 41 41 40 41 44 47 49 50 51 50 47 46 44 42 43 43 39 38 35 32 30 29 28 29 30 30 31 29 27 33 34 34 36 38
52 51 51 49 47 48 46 41 38 39 41 42 41 41 40 38 35 33 31 30 30 32 34 34 36 36 38 38 38 38 39 41 42 43 42 42 43 44 46 50 53 51 46 45 45 47 42 39 36 34 35 37 36 33 32 30 34 44 46 46 47 48 49
nan 55 54 52 51 50 48 42 36 36 39 40 39 39 39 39 36 35 32 30 30 31 32 33 33 32 33 33 33 32 35 36 37 36 36 35 36 37 39 40 47 55 55 51 49 51 52 44 41 43 42 42 42 44 51 53 51 51 50 52 52 53 54
nan nan 50 49 48 47 45 42 34 32 34 36 37 37 38 39 38 35 34 32 31 30 32 33 33 30 29 31 31 32 32 32 33 33 33 33 33 34 34 36 39 44 50 53 54 56 56 56 54 51 52 52 50 49 48 50 52 52 52 53 54 55 56
Wind_Direction
333 285 263 214 191 69 38 7 344 340 352 359 353 346 335 305 285 266 262 264 274 247 213 216 227 224 240 233 238 232 201 184 194 196 188 174 170 167 162 157 147 139 148 138 121 91 81 3 14 25 13 10 10 8 8 8 9 7 8 12 17 22 27
257 225 223 197 162 95 80 24 348 337 342 351 345 345 340 323 286 277 274 271 278 273 223 196 210 215 227 223 219 217 198 181 192 195 191 188 185 181 178 167 160 153 146 140 150 159 205 243 324 349 357 347 357 344 345 351 355 353 353 358 4 12 17
165 188 213 208 187 137 80 51 345 339 338 337 337 345 351 336 310 307 282 268 271 254 216 188 193 211 219 220 214 206 194 189 191 192 192 189 185 187 190 183 176 175 154 174 194 207 221 259 275 307 325 334 336 326 330 335 341 340 341 343 350 356 4
154 167 205 233 241 108 69 342 342 335 342 344 344 349 349 342 316 287 275 278 279 260 241 182 198 213 220 223 213 201 194 190 188 185 181 187 192 201 205 195 192 194 198 185 203 226 236 263 293 301 323 328 332 328 322 335 332 333 331 329 338 346 349
86 128 200 220 219 203 202 216 245 2 9 358 345 337 344 341 315 279 259 267 283 299 245 208 199 206 211 218 208 200 197 197 192 185 183 188 197 206 206 205 203 199 189 203 213 225 240 262 284 300 314 321 332 323 332 330 333 329 326 323 330 331 336
356 171 206 233 236 225 232 264 7 30 10 355 341 325 329 336 312 300 281 274 272 250 218 208 203 208 209 209 208 205 204 201 197 191 189 194 202 203 204 208 205 196 204 206 221 227 250 263 288 306 320 321 328 332 328 330 336 328 329 324 327 324 324
306 302 277 272 272 261 260 259 165 60 5 337 309 285 280 320 324 281 250 256 279 280 247 215 209 214 207 213 209 214 213 209 205 196 196 199 198 196 202 205 199 199 200 213 212 228 246 266 290 306 323 325 327 334 333 332 332 327 324 326 328 324 323
298 291 292 298 304 284 265 245 206 228 276 268 277 278 303 327 300 258 245 238 248 252 237 230 212 208 216 216 214 217 213 212 208 205 206 202 196 197 203 201 198 200 209 209 209 227 239 269 281 298 316 323 330 333 336 330 330 324 321 329 332 332 316
289 297 295 298 304 278 257 231 226 266 292 302 307 298 305 311 304 259 225 224 223 249 250 222 197 195 208 214 214 212 211 214 213 213 211 204 198 201 205 201 201 206 202 198 206 214 230 260 286 300 307 317 323 324 326 330 326 320 321 330 335 337 331
267 272 277 281 276 258 240 221 231 237 242 264 274 269 288 303 283 245 217 209 209 227 238 219 203 199 200 200 200 206 211 213 216 219 214 203 199 204 206 209 211 209 201 198 203 212 222 244 273 283 298 307 311 315 319 326 326 325 326 333 333 336 342
246 262 268 264 248 233 223 222 235 233 239 266 274 265 264 283 274 250 228 212 201 202 219 214 211 210 206 204 202 203 204 206 211 212 210 201 202 205 211 214 216 211 205 211 209 216 232 234 247 266 280 294 310 318 325 335 332 330 331 326 326 334 336
229 240 249 251 236 227 230 238 237 226 227 245 251 239 241 257 254 232 218 211 204 210 216 210 212 210 213 213 211 208 209 206 205 201 200 200 203 210 216 217 217 214 209 219 222 231 243 250 248 258 279 292 314 323 332 330 328 334 337 336 330 325 325
233 231 235 238 229 224 230 237 244 232 225 241 242 210 206 214 214 205 207 210 209 212 215 214 214 211 213 217 213 211 208 208 206 203 199 201 204 211 214 215 216 216 214 223 224 236 242 252 261 258 272 301 315 331 339 338 332 335 339 337 333 333 329
232 223 221 222 221 223 228 237 243 234 212 214 207 192 190 183 167 170 200 208 212 217 216 213 217 213 210 211 202 196 195 199 205 207 207 207 209 210 210 209 210 210 214 224 228 227 238 250 263 267 277 316 327 343 335 334 332 338 345 341 341 335 340
224 218 220 224 221 221 223 229 234 229 204 197 199 190 183 174 160 165 183 197 205 210 215 221 220 218 217 213 205 197 199 202 205 209 214 216 216 212 208 206 205 208 214 220 221 223 229 240 254 271 293 308 320 336 336 339 343 336 346 353 1 353 10
215 218 229 234 226 220 221 227 230 222 205 197 199 191 184 173 157 137 135 178 208 213 218 224 222 224 223 218 216 212 210 211 211 214 219 221 221 217 211 207 208 209 214 219 222 226 233 240 254 270 293 298 311 322 330 339 325 6 19 12 2 3 19
196 213 230 236 228 222 222 219 213 211 204 195 196 196 184 166 147 138 121 121 144 194 217 223 220 220 219 213 219 219 217 215 211 213 216 215 216 217 216 214 214 214 218 222 229 236 240 247 258 266 264 283 303 335 337 334 344 27 19 19 23 17 50
206 221 228 227 227 223 217 211 211 212 202 191 192 194 185 174 161 153 117 111 113 157 202 209 213 212 206 206 214 218 220 217 215 211 207 209 209 214 216 218 220 221 226 230 238 240 242 250 260 253 250 252 280 339 342 342 27 31 23 15 18 24 52
258 251 239 230 227 219 214 213 217 219 207 196 194 193 184 178 163 133 118 119 134 168 158 158 181 189 188 196 209 216 218 220 221 215 213 212 214 217 222 226 229 233 238 244 244 243 248 254 257 254 254 256 270 303 321 329 38 34 25 16 16 25 39
227 249 240 229 225 218 211 213 215 216 215 203 190 186 189 181 157 152 180 190 192 170 155 151 150 156 163 185 202 210 217 226 231 231 233 236 238 240 245 249 256 256 255 253 256 259 258 255 259 254 253 254 250 234 225 211 61 24 19 16 16 16 5
211 215 216 209 204 200 202 212 216 211 201 189 187 193 195 183 180 196 202 203 194 178 171 164 159 161 169 179 181 188 201 228 238 257 263 268 274 281 292 292 278 277 273 271 274 271 261 253 248 245 245 243 243 233 217 198 72 326 345 0 2 352 319
214 222 220 208 206 200 203 204 204 198 190 190 195 197 194 190 196 204 203 203 200 192 181 176 172 172 183 189 194 197 210 234 236 252 270 284 293 307 317 304 298 295 282 277 271 263 255 245 240 241 243 244 244 237 207 195 251 291 300 317 317 305 268
220 223 221 211 209 202 200 203 202 197 195 196 197 199 198 201 204 205 206 205 201 199 191 186 180 181 189 195 204 212 222 233 248 260 280 294 308 321 320 309 301 287 275 279 278 273 268 254 244 236 235 239 242 234 206 201 229 271 285 290 292 267 243
220 219 219 218 212 206 205 204 204 200 203 203 201 200 203 206 210 209 207 204 203 204 198 194 186 189 195 200 209 218 228 240 255 265 273 281 302 313 315 310 297 297 287 291 285 281 276 259 244 238 235 236 238 237 220 212 226 269 272 286 289 281 249
219 217 214 214 218 216 211 210 210 208 206 205 204 197 201 210 215 213 208 207 207 205 201 194 196 201 203 207 215 223 233 243 254 261 269 277 285 291 304 308 308 305 298 297 285 276 269 264 251 241 235 231 229 238 239 226 233 270 283 295 295 281 244
212 212 212 214 214 214 213 212 214 210 209 207 204 203 207 209 212 211 211 212 213 208 198 196 204 208 208 210 218 227 235 241 252 256 261 268 271 273 284 289 291 294 298 300 290 270 260 261 257 251 241 236 233 231 238 239 239 254 289 293 296 299 267
208 207 210 212 212 212 216 213 212 212 211 209 209 209 211 217 216 211 210 212 211 204 199 201 207 211 212 212 216 223 232 239 248 259 260 261 266 269 272 274 283 291 296 302 299 287 264 257 252 249 245 243 239 234 236 241 246 254 285 289 293 300 294
206 208 209 209 211 212 219 220 216 212 209 207 210 211 214 218 219 216 216 214 210 204 202 203 209 217 220 221 221 224 230 238 243 253 258 261 261 260 260 262 269 277 287 288 295 304 295 270 255 247 243 245 245 241 236 240 259 250 270 286 290 296 311
209 210 209 208 211 210 218 224 222 218 214 209 209 209 211 217 219 217 216 215 208 204 204 206 211 216 223 228 229 229 231 233 241 245 247 253 261 264 264 262 264 267 270 275 279 289 295 292 276 259 246 243 245 244 240 239 243 263 255 270 285 293 298
213 210 209 208 208 209 215 223 223 223 219 216 214 213 212 214 214 214 215 211 206 206 206 207 212 217 220 224 229 234 235 237 239 241 242 248 252 255 259 261 262 264 264 266 267 270 277 278 280 277 264 250 244 244 242 240 241 247 260 263 283 284 294
214 209 205 205 207 208 212 220 224 225 225 220 218 215 213 212 213 211 210 205 206 205 205 207 213 218 220 223 225 229 233 236 239 242 243 244 248 248 249 252 256 259 260 261 260 260 262 265 270 275 273 262 251 247 245 244 246 241 245 256 266 277 280
212 208 205 205 206 209 214 218 222 225 227 223 219 217 215 214 214 212 208 207 207 206 204 205 211 217 219 221 223 226 231 236 238 241 244 245 245 245 244 248 251 254 256 261 263 261 257 257 262 264 266 264 257 251 251 252 249 249 246 248 256 258 265
211 211 209 208 207 210 214 220 224 226 226 225 220 218 215 215 215 214 211 211 210 211 210 209 212 214 217 220 223 226 228 233 235 237 239 240 239 238 238 239 242 245 248 254 260 260 256 254 255 257 258 259 257 253 252 252 252 252 251 252 254 254 257
211 212 212 214 214 215 218 221 225 229 229 227 222 221 218 216 215 213 214 215 216 215 217 217 218 220 220 223 225 228 231 233 236 239 237 236 235 236 235 236 238 241 243 247 252 256 257 256 254 255 257 256 256 255 252 251 253 253 256 256 256 256 257
211 214 215 216 217 220 221 223 227 231 234 229 224 223 220 216 212 212 213 215 218 219 221 221 222 226 227 228 231 232 232 235 237 239 240 239 239 237 234 232 234 236 239 238 238 246 253 257 254 254 254 256 257 258 253 252 255 254 250 254 259 265 265
210 212 215 217 221 222 223 224 228 231 233 230 226 223 222 218 214 211 213 215 219 222 225 224 224 227 229 231 235 236 239 240 241 243 246 248 249 247 241 239 240 236 238 239 231 231 233 245 253 254 254 253 251 252 260 260 256 254 256 256 257 258 262
nan 211 214 218 222 224 226 225 229 232 231 230 230 229 228 225 220 217 215 218 221 227 230 229 227 228 231 235 238 241 244 246 247 248 249 251 251 251 251 246 237 235 237 240 240 239 236 239 249 256 257 259 251 242 252 257 258 259 260 261 262 263 264
nan nan 220 223 227 229 230 229 230 232 231 233 237 238 235 230 226 223 220 222 223 228 234 234 233 229 231 237 240 244 246 250 252 253 254 251 251 252 254 251 248 240 236 237 241 241 243 241 239 245 252 253 256 258 250 256 265 267 264 263 263 263 264